Home   Weather   Glasgow   Past weeks
Flag for United Kingdom

Past Weather in Glasgow, Scotland, United Kingdom — September 2014

Now
63 °F

Mild.


Feels Like: 63 °F
Forecast: 55 / 41 °F
Wind: 13 mph from Southeast

Location: Glasgow Airport

Current Time: Apr 5, 2020 at 5:52:03 pm

Latest Report: Apr 5, 2020 at 4:50 pm


Visibility: N/A

Pressure: 29.59 "Hg

Humidity: 42%

Dew Point: 39 °F

Location of GlasgowLocation

September 2014 Weather in Glasgow — Graph

°F

High & Low Weather Summary for September 2014

 TemperatureHumidityPressure
High72 °F (Sep 4, 2:20 pm)100% (Sep 1, 12:50 am)30.39 "Hg (Sep 1, 12:50 am)
Low36 °F (Sep 21, 6:50 am)49% (Sep 21, 3:20 pm)29.80 "Hg (Sep 23, 11:20 pm)
Average57 °F84%30.11 "Hg
* Reported Sep 1 12:20 am — Sep 30 11:50 pm, Glasgow. Weather by CustomWeather, © 2020

Note: Actual official high and low records may vary slightly from our data, if they occured in-between our weather recording intervals... More about our weather records

Glasgow Weather History for September 1, 2014

Scroll right to see more
 ConditionsComfort  
Time TempWeatherWind HumidityBarometerVisibility
12:20 am
Mon, Sep 1
57 °FOvercast.9 mph94%29.98 "Hg5 mi
12:50 am57 °FOvercast.9 mph100%29.98 "HgN/A
1:20 am57 °FPartly cloudy.8 mph94%29.98 "HgN/A
1:50 am55 °FPassing clouds.6 mph94%29.98 "HgN/A
2:20 am57 °FMostly cloudy.8 mph94%29.98 "HgN/A
2:50 am57 °FMostly cloudy.9 mph94%29.98 "HgN/A
3:20 am57 °FPartly cloudy.3 mph88%29.98 "HgN/A
3:50 am55 °FPartly cloudy.5 mph94%30.01 "HgN/A
4:20 am55 °FPartly cloudy.5 mph88%30.01 "HgN/A
4:50 am55 °FMostly cloudy.6 mph88%30.01 "HgN/A
5:20 am55 °FPartly cloudy.7 mph94%30.01 "HgN/A
5:50 am55 °FPassing clouds.3 mph94%30.01 "HgN/A
6:20 am55 °FPassing clouds.5 mph88%30.04 "HgN/A
6:50 am55 °FPartly cloudy.2 mph88%30.04 "HgN/A
7:20 am55 °FPartly cloudy.2 mph88%30.04 "HgN/A
7:50 am55 °FPartly sunny.3 mph88%30.07 "HgN/A
8:20 am57 °FPartly sunny.5 mph82%30.07 "HgN/A
8:50 am57 °FPartly sunny.3 mph82%30.07 "HgN/A
9:20 am59 °FPartly sunny.5 mph77%30.07 "HgN/A
9:50 am59 °FPartly sunny.7 mph72%30.09 "HgN/A
10:20 am61 °FPartly sunny.8 mph68%30.09 "HgN/A
10:50 am61 °FBroken clouds.8 mph63%30.09 "HgN/A
11:20 am61 °FBroken clouds.8 mph63%30.09 "HgN/A
11:50 am61 °FBroken clouds.8 mph68%30.09 "HgN/A
12:20 pm61 °FBroken clouds.8 mph68%30.09 "HgN/A
12:50 pm63 °FBroken clouds.9 mph59%30.12 "HgN/A
1:20 pm63 °FBroken clouds.8 mph64%30.12 "HgN/A
1:50 pm63 °FBroken clouds.10 mph68%30.12 "HgN/A
2:20 pm61 °FScattered clouds.9 mph68%30.12 "HgN/A
2:50 pm64 °FBroken clouds.9 mph60%30.12 "HgN/A
3:20 pm64 °FBroken clouds.7 mph60%30.12 "HgN/A
3:50 pm64 °FBroken clouds.8 mph60%30.12 "HgN/A
4:20 pm63 °FBroken clouds.9 mph64%30.12 "HgN/A
4:50 pm63 °FBroken clouds.10 mph64%30.12 "HgN/A
5:20 pm63 °FBroken clouds.12 mph68%30.12 "HgN/A
5:50 pm61 °FPartly sunny.9 mph72%30.15 "HgN/A
6:20 pm61 °FPartly sunny.9 mph68%30.15 "HgN/A
6:50 pm61 °FPartly sunny.9 mph68%30.15 "HgN/A
7:20 pm59 °FPartly sunny.7 mph77%30.15 "HgN/A
7:50 pm59 °FPartly sunny.7 mph72%30.18 "HgN/A
8:20 pm59 °FPartly sunny.6 mph72%30.18 "HgN/A
8:50 pm57 °FPartly sunny.5 mph77%30.18 "HgN/A
9:20 pm57 °FPassing clouds.5 mph82%30.21 "HgN/A
10:20 pm57 °FPassing clouds.6 mph82%30.21 "HgN/A
10:50 pm57 °FPassing clouds.5 mph82%30.21 "HgN/A
11:20 pm57 °FPassing clouds.5 mph82%30.21 "HgN/A
11:50 pm57 °FMostly cloudy.5 mph77%30.21 "HgN/A
Weather by CustomWeather, © 2020

See weather overview

Advertising